| time (UTC) | temp F | wind direction | speed MPH | gust MPH | rain 1hr in | rain 24hr in | rain mn in | humidity % | barometer mb |
| 20260905093003 | 57 | 63 | 2.0 | 11.0 | 0.01 | 0.36 | 0.11 | 98 | 1003.9 |
| 20260905092213 | 57 | 69 | 2.0 | 8.0 | 0.01 | 0.37 | 0.11 | 98 | 1003.6 |
| 20260905091003 | 57 | 27 | 2.0 | 11.0 | 0.01 | 0.37 | 0.11 | 98 | 1003.6 |
| 20260905090003 | 58 | 78 | 2.0 | 10.0 | 0.02 | 0.38 | 0.11 | 98 | 1003.6 |
| 20260905085003 | 58 | 57 | 2.0 | 7.0 | 0.04 | 0.39 | 0.11 | 98 | 1003.6 |
| 20260905084213 | 58 | 64 | 2.0 | 8.0 | 0.05 | 0.39 | 0.11 | 99 | 1003.6 |
| 20260905083213 | 58 | 58 | 2.0 | 9.0 | 0.04 | 0.39 | 0.10 | 99 | 1003.2 |
| 20260905082003 | 58 | 40 | 2.0 | 14.0 | 0.05 | 0.39 | 0.10 | 99 | 1003.2 |
| 20260905081003 | 58 | 83 | 2.0 | 9.0 | 0.06 | 0.40 | 0.10 | 99 | 1003.2 |
| 20260905080004 | 58 | 357 | 2.0 | 6.0 | 0.05 | 0.39 | 0.09 | 99 | 1003.2 |
| 20260905075003 | 58 | 122 | 1.0 | 4.0 | 0.04 | 0.39 | 0.07 | 99 | 1003.2 |
| 20260905074213 | 58 | 119 | 2.0 | 14.0 | 0.03 | 0.40 | 0.06 | 99 | 1002.9 |
| 20260905073212 | 58 | 68 | 2.0 | 8.0 | 0.04 | 0.40 | 0.06 | 98 | 1002.9 |
| 20260905072003 | 58 | 100 | 2.0 | 9.0 | 0.03 | 0.39 | 0.05 | 98 | 1003.2 |
| 20260905071003 | 58 | 119 | 2.0 | 7.0 | 0.02 | 0.38 | 0.04 | 98 | 1003.2 |
| 20260905070214 | 59 | 4 | 2.0 | 7.0 | 0.02 | 0.38 | 0.04 | 98 | 1003.2 |
| 20260905065003 | 59 | 103 | 1.0 | 7.0 | 0.01 | 0.38 | 0.03 | 98 | 1002.9 |
| 20260905064003 | 59 | 73 | 2.0 | 13.0 | 0.00 | 0.38 | 0.03 | 98 | 1002.9 |
| 20260905063003 | 59 | 71 | 2.0 | 10.0 | 0.00 | 0.38 | 0.02 | 98 | 1002.9 |
| 20260905062003 | 59 | 127 | 2.0 | 9.0 | 0.01 | 0.39 | 0.02 | 98 | 1003.2 |
| 20260905061003 | 59 | 92 | 1.0 | 8.0 | 0.01 | 0.40 | 0.02 | 98 | 1002.9 |
| 20260905060003 | 59 | 149 | 2.0 | 6.0 | 0.01 | 0.40 | 0.02 | 97 | 1002.9 |
| 20260905055214 | 59 | 39 | 2.0 | 8.0 | 0.01 | 0.41 | 0.02 | 97 | 1002.9 |
| 20260905054003 | 60 | 11 | 2.0 | 8.0 | 0.01 | 0.41 | 0.02 | 97 | 1003.2 |
| 20260905053003 | 60 | 123 | 2.0 | 9.0 | 0.01 | 0.41 | 0.02 | 97 | 1002.9 |
| 20260905052003 | 60 | 99 | 1.0 | 4.0 | 0.00 | 0.40 | 0.01 | 97 | 1002.9 |
| 20260905051003 | 60 | 98 | 2.0 | 9.0 | 0.00 | 0.41 | 0.01 | 97 | 1002.9 |
| 20260905050003 | 60 | 48 | 2.0 | 6.0 | 0.00 | 0.43 | 0.01 | 97 | 1002.6 |
| 20260905045003 | 60 | 64 | 1.0 | 8.0 | 0.00 | 0.45 | 0.01 | 97 | 1002.9 |
| 20260905044003 | 60 | 42 | 2.0 | 7.0 | 0.01 | 0.47 | 0.01 | 97 | 1003.2 |
| 20260905043003 | 60 | 61 | 2.0 | 8.0 | 0.01 | 0.50 | 0.01 | 97 | 1003.2 |
| 20260905042213 | 60 | 56 | 1.0 | 8.0 | 0.01 | 0.54 | 0.01 | 97 | 1003.2 |
| 20260905041003 | 60 | 90 | 2.0 | 6.0 | 0.01 | 0.59 | 0.01 | 97 | 1002.6 |
| 20260905040003 | 61 | 8 | 1.0 | 7.0 | 0.01 | 0.64 | 0.01 | 97 | 1002.9 |
| 20260905035003 | 61 | 58 | 2.0 | 10.0 | 0.01 | 0.70 | 0.01 | 97 | 1002.9 |
| 20260905034213 | 61 | 111 | 1.0 | 7.0 | 0.00 | 0.74 | 0.00 | 97 | 1002.9 |
| 20260905033003 | 61 | 68 | 2.0 | 9.0 | 0.00 | 0.82 | 0.00 | 96 | 1002.9 |
| 20260905032003 | 61 | 49 | 2.0 | 8.0 | 0.00 | 0.90 | 0.00 | 96 | 1002.9 |
| 20260905031003 | 61 | 41 | 1.0 | 11.0 | 0.00 | 0.93 | 0.00 | 96 | 1002.9 |
| 20260905030213 | 61 | 68 | 2.0 | 9.0 | 0.00 | 0.95 | 0.00 | 95 | 1002.6 |
| 20260905025003 | 61 | 54 | 2.0 | 10.0 | 0.00 | 0.97 | 0.96 | 96 | 1002.9 |
| 20260905024003 | 61 | 66 | 3.0 | 14.0 | 0.00 | 0.98 | 0.96 | 96 | 1002.6 |
| 20260905023003 | 61 | 40 | 2.0 | 9.0 | 0.00 | 0.99 | 0.96 | 97 | 1002.9 |
| 20260905022003 | 61 | 94 | 2.0 | 11.0 | 0.00 | 1.00 | 0.96 | 98 | 1002.6 |
| 20260905021003 | 61 | 320 | 2.0 | 7.0 | 0.00 | 1.00 | 0.96 | 98 | 1002.6 |
| 20260905020003 | 61 | 116 | 1.0 | 4.0 | 0.00 | 1.01 | 0.96 | 98 | 1002.6 |
| 20260905015212 | 61 | 281 | 1.0 | 4.0 | 0.01 | 1.01 | 0.96 | 98 | 1002.6 |
| 20260905014214 | 61 | 24 | 1.0 | 4.0 | 0.01 | 1.01 | 0.96 | 98 | 1002.9 |
| 20260905013003 | 61 | 88 | 2.0 | 8.0 | 0.03 | 1.01 | 0.96 | 98 | 1002.9 |
| 20260905012003 | 61 | 325 | 1.0 | 4.0 | 0.03 | 1.01 | 0.96 | 99 | 1002.9 |
| 20260905011003 | 61 | 292 | 1.0 | 4.0 | 0.03 | 1.01 | 0.96 | 98 | 1002.9 |
| 20260905010004 | 61 | 3 | 1.0 | 4.0 | 0.03 | 1.01 | 0.96 | 98 | 1003.2 |
| 20260905005003 | 61 | 256 | 1.0 | 7.0 | 0.02 | 1.00 | 0.95 | 98 | 1003.2 |
| 20260905004004 | 62 | 101 | 1.0 | 2.0 | 0.01 | 0.99 | 0.95 | 98 | 1003.2 |
| 20260905003003 | 62 | 242 | 1.0 | 3.0 | 0.00 | 0.98 | 0.93 | 98 | 1003.2 |
| 20260905002003 | 61 | 307 | 0.0 | 2.0 | 0.00 | 0.98 | 0.93 | 98 | 1003.2 |
| 20260905001003 | 62 | 300 | 1.0 | 6.0 | 0.00 | 0.98 | 0.93 | 97 | 1002.9 |
| 20260905000003 | 62 | 63 | 2.0 | 7.0 | 0.01 | 0.98 | 0.93 | 97 | 1003.2 |
| 20260904235003 | 62 | 83 | 2.0 | 10.0 | 0.02 | 0.98 | 0.93 | 97 | 1002.9 |
| 20260904234003 | 62 | 60 | 1.0 | 10.0 | 0.03 | 0.98 | 0.93 | 97 | 1003.2 |
| 20260904233003 | 62 | 70 | 3.0 | 13.0 | 0.03 | 0.98 | 0.93 | 97 | 1002.9 |
| 20260904232003 | 62 | 58 | 3.0 | 13.0 | 0.03 | 0.98 | 0.93 | 98 | 1002.9 |
| 20260904231003 | 62 | 83 | 2.0 | 11.0 | 0.03 | 0.98 | 0.93 | 98 | 1002.9 |
| 20260904230003 | 62 | 63 | 2.0 | 10.0 | 0.03 | 0.97 | 0.92 | 98 | 1003.2 |
| 20260904225003 | 62 | 72 | 2.0 | 11.0 | 0.02 | 0.96 | 0.91 | 97 | 1002.9 |
| 20260904224003 | 63 | 75 | 2.0 | 10.0 | 0.01 | 0.95 | 0.91 | 97 | 1002.6 |
| 20260904223003 | 63 | 51 | 2.0 | 8.0 | 0.01 | 0.95 | 0.90 | 97 | 1002.6 |
| 20260904222003 | 63 | 299 | 3.0 | 10.0 | 0.01 | 0.95 | 0.90 | 97 | 1002.6 |
| 20260904221003 | 64 | 84 | 1.0 | 4.0 | 0.01 | 0.95 | 0.90 | 96 | 1002.6 |
| 20260904220004 | 64 | 85 | 1.0 | 6.0 | 0.00 | 0.94 | 0.89 | 96 | 1002.2 |
| 20260904215003 | 65 | 153 | 1.0 | 6.0 | 0.00 | 0.94 | 0.89 | 96 | 1002.6 |
| 20260904214003 | 66 | 103 | 1.0 | 6.0 | 0.00 | 0.94 | 0.89 | 95 | 1002.6 |
| 20260904213003 | 66 | 56 | 1.0 | 6.0 | 0.00 | 0.94 | 0.89 | 95 | 1002.2 |
| 20260904212003 | 66 | 315 | 1.0 | 4.0 | 0.00 | 0.94 | 0.89 | 94 | 1002.2 |
| 20260904211003 | 67 | 324 | 1.0 | 4.0 | 0.00 | 0.94 | 0.89 | 92 | 1002.2 |
| 20260904210004 | 67 | 311 | 2.0 | 6.0 | 0.00 | 0.95 | 0.89 | 90 | 1002.2 |
| 20260904205003 | 68 | 291 | 1.0 | 4.0 | 0.00 | 0.95 | 0.89 | 89 | 1002.2 |
| 20260904204212 | 69 | 268 | 1.0 | 3.0 | 0.00 | 0.95 | 0.89 | 88 | 1002.6 |
| 20260904203003 | 69 | 303 | 0.0 | 3.0 | 0.00 | 0.95 | 0.89 | 89 | 1002.6 |
| 20260904202003 | 68 | 297 | 0.0 | 3.0 | 0.00 | 0.95 | 0.89 | 90 | 1002.6 |
| 20260904201003 | 68 | 38 | 0.0 | 2.0 | 0.00 | 0.95 | 0.89 | 89 | 1002.9 |
| 20260904200003 | 69 | 354 | 1.0 | 3.0 | 0.00 | 0.95 | 0.89 | 88 | 1002.9 |
| 20260904195003 | 70 | 59 | 0.0 | 3.0 | 0.00 | 0.95 | 0.89 | 87 | 1002.6 |
| 20260904194003 | 70 | 69 | 0.0 | 2.0 | 0.00 | 0.95 | 0.89 | 87 | 1002.6 |
| 20260904193214 | 70 | 25 | 1.0 | 3.0 | 0.00 | 0.95 | 0.89 | 87 | 1002.6 |
| 20260904192003 | 70 | 88 | 0.0 | 3.0 | 0.00 | 0.95 | 0.89 | 89 | 1003.2 |
| 20260904191003 | 69 | 73 | 1.0 | 4.0 | 0.00 | 0.95 | 0.89 | 90 | 1002.9 |
| 20260904190003 | 68 | 87 | 1.0 | 3.0 | 0.00 | 0.95 | 0.89 | 91 | 1002.9 |
| 20260904185003 | 68 | 88 | 0.0 | 2.0 | 0.00 | 0.95 | 0.89 | 93 | 1003.2 |
| 20260904184003 | 68 | 82 | 0.0 | 3.0 | 0.00 | 0.95 | 0.89 | 93 | 1003.2 |
| 20260904183003 | 68 | 97 | 1.0 | 2.0 | 0.00 | 0.95 | 0.89 | 94 | 1003.2 |
| 20260904182003 | 67 | 91 | 0.0 | 3.0 | 0.00 | 0.95 | 0.89 | 95 | 1003.2 |
| 20260904181003 | 67 | 87 | 1.0 | 4.0 | 0.00 | 0.95 | 0.89 | 94 | 1003.2 |
| 20260904180003 | 68 | 67 | 0.0 | 2.0 | 0.00 | 0.95 | 0.89 | 93 | 1003.2 |
| 20260904175003 | 68 | 77 | 0.0 | 2.0 | 0.00 | 0.95 | 0.89 | 92 | 1003.2 |
| 20260904174003 | 68 | 46 | 0.0 | 3.0 | 0.00 | 0.95 | 0.89 | 92 | 1003.6 |
| 20260904173003 | 69 | 83 | 1.0 | 4.0 | 0.00 | 0.95 | 0.89 | 91 | 1003.6 |
| 20260904172003 | 69 | 75 | 1.0 | 3.0 | 0.00 | 0.95 | 0.89 | 90 | 1003.6 |
| 20260904171213 | 69 | 72 | 1.0 | 4.0 | 0.00 | 0.95 | 0.89 | 92 | 1003.6 |
| 20260904170004 | 70 | 49 | 1.0 | 3.0 | 0.00 | 0.95 | 0.89 | 91 | 1003.9 |
| 20260904165003 | 69 | 54 | 1.0 | 2.0 | 0.00 | 0.95 | 0.89 | 93 | 1003.9 |
| 20260904164003 | 68 | 72 | 1.0 | 4.0 | 0.00 | 0.95 | 0.89 | 94 | 1003.9 |
| 20260904163213 | 68 | 79 | 1.0 | 4.0 | 0.00 | 0.95 | 0.89 | 93 | 1003.9 |
| 20260904162003 | 69 | 68 | 1.0 | 3.0 | 0.00 | 0.95 | 0.89 | 93 | 1004.3 |
| 20260904161003 | 69 | 58 | 0.0 | 2.0 | 0.00 | 0.95 | 0.89 | 93 | 1004.3 |
| 20260904160003 | 69 | 83 | 1.0 | 6.0 | 0.01 | 0.95 | 0.89 | 93 | 1004.6 |
| 20260904155213 | 69 | 4 | 0.0 | 2.0 | 0.01 | 0.95 | 0.89 | 94 | 1004.6 |
| 20260904154003 | 68 | 88 | 0.0 | 1.0 | 0.01 | 0.95 | 0.89 | 97 | 1004.9 |
| 20260904153212 | 67 | 77 | 0.0 | 2.0 | 0.01 | 0.95 | 0.89 | 97 | 1004.6 |
| 20260904152003 | 66 | 71 | 0.0 | 2.0 | 0.01 | 0.95 | 0.89 | 98 | 1004.9 |
| 20260904151003 | 66 | 56 | 1.0 | 3.0 | 0.01 | 0.95 | 0.89 | 98 | 1005.3 |
| 20260904150004 | 66 | 59 | 0.0 | 3.0 | 0.00 | 0.94 | 0.88 | 98 | 1005.3 |
| 20260904145212 | 66 | 97 | 0.0 | 1.0 | 0.00 | 0.94 | 0.88 | 98 | 1005.3 |
| 20260904144003 | 66 | 57 | 0.0 | 2.0 | 0.01 | 0.94 | 0.88 | 99 | 1005.3 |
| 20260904143214 | 66 | 71 | 0.0 | 2.0 | 0.01 | 0.94 | 0.88 | 99 | 1005.3 |
| 20260904142003 | 66 | 80 | 0.0 | 3.0 | 0.01 | 0.94 | 0.88 | 99 | 1005.6 |
| 20260904141003 | 65 | 102 | 0.0 | 2.0 | 0.01 | 0.94 | 0.88 | 99 | 1005.6 |
| 20260904140214 | 65 | 63 | 0.0 | 2.0 | 0.01 | 0.94 | 0.88 | 99 | 1005.6 |
| 20260904135214 | 65 | 89 | 0.0 | 2.0 | 0.01 | 0.94 | 0.88 | 99 | 1005.6 |
| 20260904134003 | 65 | 38 | 0.0 | 2.0 | 0.01 | 0.93 | 0.87 | 99 | 1005.6 |
| 20260904133003 | 65 | 55 | 0.0 | 1.0 | 0.01 | 0.93 | 0.87 | 99 | 1006.0 |
| 20260904132003 | 64 | 19 | 0.0 | 3.0 | 0.01 | 0.93 | 0.87 | 99 | 1006.0 |
| 20260904131003 | 64 | 161 | 0.0 | 1.0 | 0.01 | 0.93 | 0.87 | 99 | 1006.0 |
| 20260904130003 | 64 | 55 | 0.0 | 3.0 | 0.01 | 0.93 | 0.87 | 99 | 1006.0 |
| 20260904125003 | 64 | 0 | 0.0 | 0.0 | 0.01 | 0.92 | 0.86 | 99 | 1006.3 |
| 20260904124003 | 63 | 62 | 0.0 | 2.0 | 0.01 | 0.92 | 0.86 | 99 | 1006.0 |
| 20260904123003 | 63 | 25 | 0.0 | 1.0 | 0.02 | 0.92 | 0.86 | 99 | 1006.3 |
| 20260904122003 | 63 | 29 | 0.0 | 1.0 | 0.02 | 0.92 | 0.86 | 99 | 1006.6 |
| 20260904121003 | 63 | 28 | 0.0 | 1.0 | 0.02 | 0.92 | 0.86 | 99 | 1006.6 |
| 20260904120003 | 62 | 0 | 0.0 | 0.0 | 0.03 | 0.92 | 0.86 | 99 | 1006.6 |
| 20260904115003 | 62 | 0 | 0.0 | 0.0 | 0.03 | 0.91 | 0.85 | 99 | 1007.0 |
| 20260904114003 | 62 | 0 | 0.0 | 0.0 | 0.04 | 0.91 | 0.85 | 99 | 1007.0 |
| 20260904113003 | 62 | 40 | 0.0 | 1.0 | 0.05 | 0.90 | 0.84 | 99 | 1007.0 |
| 20260904112004 | 62 | 0 | 0.0 | 0.0 | 0.08 | 0.90 | 0.84 | 99 | 1007.0 |
| 20260904111003 | 62 | 342 | 0.0 | 1.0 | 0.09 | 0.90 | 0.84 | 99 | 1007.3 |
| 20260904110004 | 61 | 40 | 0.0 | 3.0 | 0.08 | 0.89 | 0.83 | 99 | 1007.0 |
| 20260904105003 | 61 | 38 | 0.0 | 1.0 | 0.08 | 0.88 | 0.82 | 99 | 1007.3 |
| 20260904104003 | 61 | 22 | 0.0 | 1.0 | 0.08 | 0.87 | 0.81 | 99 | 1007.3 |
| 20260904103004 | 61 | 44 | 0.0 | 1.0 | 0.08 | 0.85 | 0.79 | 99 | 1007.0 |
| 20260904102004 | 61 | 115 | 0.0 | 1.0 | 0.06 | 0.82 | 0.76 | 99 | 1007.3 |
| 20260904101003 | 61 | 82 | 0.0 | 3.0 | 0.05 | 0.81 | 0.75 | 99 | 1007.7 |
| 20260904100003 | 61 | 63 | 0.0 | 2.0 | 0.06 | 0.81 | 0.75 | 99 | 1007.3 |
| 20260904095003 | 61 | 183 | 0.0 | 2.0 | 0.06 | 0.80 | 0.74 | 99 | 1007.3 |
| 20260904094003 | 60 | 71 | 0.0 | 2.0 | 0.06 | 0.79 | 0.73 | 99 | 1007.7 |